Date String (YYYY-MM-DD hh:mm:ss) UTC,Instrument flags,Ambient pressure (hPa),Sample flow (lpm),Bypass flow (lpm),Sample temperature (°C),Ambient temperature (°C),ASC tube jacket temperature (°C),LED temperature (°C),Box temperature (°C),Sample RH (%),Span deviation,Mass concentration (μg/m³),Mass concentration (μg/m³),Mass concentration (μg/m³)
DateTimeUTC,F1_M11,P_M11,Q1_M11,Q2_M11,T1_M11,T2_M11,T3_M11,T4_M11,T5_M11,U1_M11,ZSPAN_M11,X0_M11,X2_M11,X1_M11
2021-09-13 07:00:00,,0828.3,4.99,0.00,29.4,28.1,00.0,38.6,31.1,21.3,0000.0,0007.56,0004.03,0003.32
2021-09-13 07:01:00,,0828.3,5.00,0.00,29.4,28.3,00.0,38.6,31.2,21.0,0000.0,0007.53,0004.01,0003.29
2021-09-13 07:02:00,,0828.3,5.00,0.00,29.5,28.4,00.0,38.6,31.2,21.2,0000.0,0007.53,0003.97,0003.28
2021-09-13 07:03:00,,0828.3,4.99,0.00,29.5,28.4,00.0,38.6,31.2,21.6,0000.0,0007.57,0003.98,0003.27
2021-09-13 07:04:00,,0828.3,5.00,0.00,29.5,28.5,00.0,38.6,31.2,21.4,0000.0,0007.89,0004.01,0003.27
2021-09-13 07:05:00,,0828.2,5.02,0.00,29.5,28.6,00.0,38.6,31.3,21.1,0000.0,0008.16,0004.04,0003.27
2021-09-13 07:06:00,,0828.3,4.99,0.00,29.5,28.6,00.0,38.6,31.3,20.8,0000.0,0008.16,0004.02,0003.24
2021-09-13 07:07:00,,0828.2,5.00,0.00,29.6,28.7,00.0,38.7,31.3,20.9,0000.0,0008.22,0003.98,0003.23
2021-09-13 07:08:00,,0828.2,5.01,0.00,29.6,28.7,00.0,38.7,31.3,20.7,0000.0,0008.61,0003.95,0003.21
2021-09-13 07:09:00,,0828.2,5.01,0.00,29.6,28.7,00.0,38.7,31.3,20.7,0000.0,0009.66,0003.92,0003.21
2021-09-13 07:10:00,,0828.2,4.99,0.00,29.6,28.7,00.0,38.7,31.3,20.7,0000.0,0009.93,0003.91,0003.21
2021-09-13 07:11:00,,0828.2,5.00,0.00,29.6,28.8,00.0,38.7,31.3,20.7,0000.0,0010.13,0003.91,0003.21
2021-09-13 07:12:00,,0828.2,5.01,0.00,29.6,28.8,00.0,38.7,31.4,20.8,0000.0,0010.30,0003.88,0003.21
2021-09-13 07:13:00,,0828.2,5.00,0.00,29.6,28.8,00.0,38.7,31.4,20.9,0000.0,0010.41,0003.90,0003.22
2021-09-13 07:14:00,,0828.2,5.00,0.00,29.6,28.8,00.0,38.7,31.4,20.9,0000.0,0010.66,0003.90,0003.22
2021-09-13 07:15:00,,0828.2,4.99,0.00,29.7,28.9,00.0,38.7,31.4,21.0,0000.0,0010.37,0003.89,0003.22
2021-09-13 07:16:00,,0828.3,5.00,0.00,29.7,28.9,00.0,38.7,31.4,20.7,0000.0,0010.09,0003.88,0003.22
2021-09-13 07:17:00,,0828.2,5.00,0.00,29.7,28.9,00.0,38.8,31.4,20.5,0000.0,0010.15,0003.89,0003.22
2021-09-13 07:18:00,,0828.2,5.00,0.00,29.7,28.9,00.0,38.8,31.4,20.6,0000.0,0009.99,0003.86,0003.21
2021-09-13 07:19:00,,0828.2,5.00,0.00,29.7,28.9,00.0,38.8,31.4,20.5,0000.0,0009.55,0003.87,0003.20
2021-09-13 07:20:00,,0828.2,5.01,0.00,29.7,28.9,00.0,38.8,31.4,20.4,0000.0,0008.49,0003.89,0003.19
2021-09-13 07:21:00,,0828.2,4.99,0.00,29.7,28.9,00.0,38.8,31.4,20.4,0000.0,0008.07,0003.82,0003.17
2021-09-13 07:22:00,,0828.2,4.99,0.00,29.7,28.9,00.0,38.8,31.4,20.2,0000.0,0007.84,0003.81,0003.17
2021-09-13 07:23:00,,0828.2,4.99,0.00,29.7,28.9,00.0,38.8,31.4,20.2,0000.0,0007.75,0003.86,0003.18
2021-09-13 07:24:00,,0828.2,5.00,0.00,29.7,28.9,00.0,38.8,31.4,20.3,0000.0,0007.76,0003.85,0003.18
2021-09-13 07:25:00,,0828.2,5.01,0.00,29.7,29.0,00.0,38.8,31.4,20.2,0000.0,0007.52,0003.84,0003.17
2021-09-13 07:26:00,,0828.2,5.00,0.00,29.8,29.0,00.0,38.8,31.5,20.2,0000.0,0007.49,0003.81,0003.14
2021-09-13 07:27:00,,0828.2,4.99,0.00,29.8,29.0,00.0,38.9,31.5,20.3,0000.0,0007.52,0003.78,0003.11
2021-09-13 07:28:00,,0828.1,5.01,0.00,29.8,29.0,00.0,38.9,31.5,20.3,0000.0,0007.61,0003.78,0003.10
2021-09-13 07:29:00,,0828.1,5.00,0.00,29.8,29.0,00.0,38.9,31.5,20.4,0000.0,0007.75,0003.79,0003.10
2021-09-13 07:30:00,,0828.1,4.99,0.00,29.8,29.0,00.0,38.9,31.5,20.5,0000.0,0007.67,0003.76,0003.09
2021-09-13 07:31:00,,0828.1,5.00,0.00,29.8,29.0,00.0,38.9,31.5,20.5,0000.0,0007.66,0003.74,0003.08
2021-09-13 07:32:00,,0828.1,5.01,0.00,29.8,29.0,00.0,38.9,31.5,20.3,0000.0,0008.24,0003.79,0003.08
2021-09-13 07:33:00,,0828.1,4.99,0.00,29.8,29.0,00.0,38.9,31.5,20.2,0000.0,0008.33,0003.79,0003.08
2021-09-13 07:34:00,,0828.1,5.00,0.00,29.8,29.0,00.0,38.9,31.5,20.2,0000.0,0008.18,0003.74,0003.05
2021-09-13 07:35:00,,0828.1,5.01,0.00,29.8,29.0,00.0,38.9,31.5,20.3,0000.0,0008.06,0003.75,0003.06
2021-09-13 07:36:00,,0828.0,4.99,0.00,29.8,29.1,00.0,38.9,31.5,20.3,0000.0,0007.85,0003.72,0003.05
2021-09-13 07:37:00,,0828.0,5.01,0.00,29.8,29.1,00.0,38.9,31.5,20.3,0000.0,0007.80,0003.71,0003.04
2021-09-13 07:38:00,,0828.0,5.00,0.00,29.8,29.1,00.0,38.9,31.6,20.4,0000.0,0007.85,0003.72,0003.04
2021-09-13 07:39:00,,0828.1,5.00,0.00,29.9,29.1,00.0,39.0,31.5,20.3,0000.0,0007.73,0003.72,0003.07
2021-09-13 07:40:00,,0828.0,5.01,0.00,29.9,29.1,00.0,39.0,31.6,20.5,0000.0,0007.65,0003.76,0003.09
2021-09-13 07:41:00,,0828.1,4.99,0.00,29.9,29.1,00.0,39.0,31.6,20.6,0000.0,0007.83,0003.80,0003.10
2021-09-13 07:42:00,,0828.1,5.01,0.00,29.9,29.1,00.0,39.0,31.6,20.5,0000.0,0007.94,0003.81,0003.10
2021-09-13 07:43:00,,0828.0,4.99,0.00,29.9,29.1,00.0,39.0,31.6,20.3,0000.0,0007.46,0003.78,0003.10
2021-09-13 07:44:00,,0828.0,5.01,0.00,29.9,29.1,00.0,39.0,31.6,20.0,0000.0,0007.23,0003.75,0003.08
2021-09-13 07:45:00,,0828.0,4.99,0.00,29.9,29.1,00.0,39.0,31.6,20.0,0000.0,0007.32,0003.76,0003.07
2021-09-13 07:46:00,,0828.1,5.01,0.00,29.9,29.2,00.0,39.0,31.6,20.1,0000.0,0007.24,0003.75,0003.05
2021-09-13 07:47:00,,0828.0,5.00,0.00,29.9,29.2,00.0,39.0,31.7,20.1,0000.0,0007.42,0003.79,0003.04
2021-09-13 07:48:00,,0827.9,5.00,0.00,29.9,29.2,00.0,39.0,31.7,19.9,0000.0,0007.69,0003.80,0003.03
2021-09-13 07:49:00,,0828.0,4.99,0.00,30.0,29.2,00.0,39.0,31.7,19.9,0000.0,0007.59,0003.79,0003.03
2021-09-13 07:50:00,,0828.0,5.00,0.00,30.0,29.2,00.0,39.0,31.7,20.1,0000.0,0007.55,0003.77,0003.00
2021-09-13 07:51:00,,0828.0,5.01,0.00,30.0,29.2,00.0,39.0,31.7,20.2,0000.0,0007.74,0003.75,0002.96
2021-09-13 07:52:00,,0827.9,4.99,0.00,30.0,29.2,00.0,39.1,31.7,20.0,0000.0,0007.64,0003.73,0002.93
2021-09-13 07:53:00,,0827.9,5.00,0.00,30.0,29.2,00.0,39.1,31.7,19.9,0000.0,0007.71,0003.72,0002.94
2021-09-13 07:54:00,,0827.9,5.01,0.00,30.0,29.3,00.0,39.1,31.7,20.3,0000.0,0007.71,0003.71,0002.93
2021-09-13 07:55:00,,0827.9,4.99,0.00,30.0,29.3,00.0,39.1,31.8,20.0,0000.0,0007.73,0003.71,0002.94
2021-09-13 07:56:00,,0827.9,5.01,0.00,30.0,29.3,00.0,39.1,31.8,20.5,0000.0,0007.83,0003.72,0002.96
2021-09-13 07:57:00,,0827.9,4.99,0.00,30.0,29.3,00.0,39.1,31.7,20.2,0000.0,0007.80,0003.69,0002.95
2021-09-13 07:58:00,,0827.9,5.00,0.00,30.0,29.3,00.0,39.1,31.8,19.8,0000.0,0008.06,0003.65,0002.92
2021-09-13 07:59:00,,0827.9,5.01,0.00,30.0,29.3,00.0,39.1,31.7,20.4,0000.0,0008.49,0003.67,0002.94
